Tracking 22454 objects as of 5-Mar-2021
HD Live streaming from Space Station
objects crossing your sky now

FREGAT DEB

Track FREGAT DEB now!
10-day predictions


NORAD ID: 46249
Int'l Code: 2011-037KK
Perigee: 1,261.0 km
Apogee: 4,602.2 km
Inclination: 51.9 °
Period: 148.8 minutes
Semi major axis: 9302 km
RCS: Unknown
Launch date: July 18, 2011
Source: Commonwealth of Independent States (former USSR) (CIS)
Launch site: TYURATAM MISSILE AND SPACE COMPLEX (TTMTR)

Note: This is SATELLITE DEBRIS
aabbcc
Your satellite tracking list
Your tracking list is empty




NASA's NSSDC Master Catalog

Two Line Element Set (TLE):
1 46249U 11037KK  20253.22366788 -.00013415 +00000-0 -25362+0 0  9994
2 46249 051.8933 235.0534 1795853 141.1054 233.3743 09.67598065002059
Source of the keplerian elements: AFSPC